Waco, TX

5:44 AM CDT on April 24, 2017 (GMT -0500)
Waco Regional

Weather History for KACT - August, 2012

Change the Weather History Date:

Monday, August 27, 2012

  Actual Average Record
Temperature  
Mean Temperature 85 °F 84 °F  
Max Temperature 94 °F 95 °F 110 °F (2011)
Min Temperature 75 °F 73 °F 61 °F (1992)
Degree Days  
Heating Degree Days 0 0  
Month to date heating degree days 0 0  
Since 1 June heating degree days 0 0  
Since 1 July heating degree days 0 0  
Cooling Degree Days 20 19  
Month to date cooling degree days 593 554  
Year to date cooling degree days 2505 2120  
Since 1 June cooling degree days 1840 1668  
Growing Degree Days 34 (Base 50)    
Moisture  
Dew Point 71 °F    
Average Humidity 64    
Maximum Humidity 82    
Minimum Humidity 46    
Precipitation  
Precipitation 0.38 in 0.08 in 1.62 in (1974)
Month to date precipitation 1.58 1.70  
Year to date precipitation 26.74 21.81  
Sea Level Pressure  
Sea Level Pressure 29.98 in    
Wind  
Wind Speed 5 mph (WNW)    
Max Wind Speed 29 mph    
Max Gust Speed 37 mph    
Visibility 9 miles    
Events Rain , Thunderstorm    
T = Trace of Precipitation, MM = Missing Value Source: NWS Daily Summary

Daily Weather History Graph

Daily Weather History Graph

Search for Another Location

Airport or City:

Trip Planner

Search our weather history database for the weather conditions in past years. The results will help you decide how hot, cold, wet, or windy it might be!

Date:

Astronomy

Aug. 27, 2012 Rise Set
Actual Time 7:01 AM CDT 7:58 PM CDT
Civil Twilight 6:36 AM CDT 8:23 PM CDT
Nautical Twilight 6:07 AM CDT 8:52 PM CDT
Astronomical Twilight 5:36 AM CDT 9:22 PM CDT
Moon 5:09 PM CDT (8/27) 2:57 AM CDT (8/27)
Length of Visible Light 13h 46m
Length of Day
12h 56m
Waxing Gibbous, 83% of the Moon is Illuminated
Aug 27
Waxing Gibbous
Aug 31
Full
Sep 8
Last Quarter
Sep 15
New
Sep 22
First Quarter

Hourly Weather History & Observations

Time (CDT) Temp. Heat Index Dew Point Humidity Pressure Visibility Wind Dir Wind Speed Gust Speed Precip Events Conditions
12:51 AM 78.1 °F - 71.1 °F 79% 29.99 in 10.0 mi ESE 4.6 mph - N/A   Clear
1:51 AM 78.1 °F - 71.1 °F 79% 29.99 in 10.0 mi SE 3.5 mph - N/A   Clear
2:51 AM 77.0 °F - 71.1 °F 82% 29.99 in 10.0 mi Calm Calm - N/A   Clear
3:51 AM 79.0 °F - 72.0 °F 79% 29.99 in 10.0 mi South 6.9 mph - N/A   Clear
4:51 AM 79.0 °F - 71.1 °F 77% 30.00 in 10.0 mi South 6.9 mph - N/A   Mostly Cloudy
5:51 AM 78.1 °F - 71.1 °F 79% 30.01 in 10.0 mi SSW 5.8 mph - N/A   Scattered Clouds
6:51 AM 77.0 °F - 71.1 °F 82% 30.02 in 10.0 mi SW 3.5 mph - N/A   Mostly Cloudy
7:51 AM 78.8 °F - 71.6 °F 78% 30.06 in 10.0 mi Calm Calm - N/A   Mostly Cloudy
8:51 AM 81.0 °F 84.9 °F 71.1 °F 72% 30.04 in 10.0 mi Calm Calm - N/A   Overcast
9:51 AM 82.0 °F 86.7 °F 72.0 °F 71% 30.05 in 10.0 mi SW 4.6 mph - N/A   Mostly Cloudy
10:51 AM 86.0 °F 91.5 °F 71.1 °F 61% 30.05 in 10.0 mi West 4.6 mph - N/A   Mostly Cloudy
11:51 AM 84.0 °F 90.2 °F 73.0 °F 69% 30.05 in 10.0 mi North 10.4 mph - N/A   Mostly Cloudy
12:51 PM 82.9 °F 88.0 °F 72.0 °F 69% 30.04 in 10.0 mi NNE 8.1 mph - N/A   Scattered Clouds
1:51 PM 87.8 °F 95.6 °F 73.4 °F 62% 30.02 in 10.0 mi North 5.8 mph - N/A   Clear
2:51 PM 91.9 °F 96.9 °F 69.1 °F 47% 29.98 in 10.0 mi North 6.9 mph - N/A   Clear
3:51 PM 93.0 °F 100.1 °F 71.1 °F 49% 29.94 in 10.0 mi NNW 8.1 mph - N/A   Clear
4:51 PM 93.9 °F 100.3 °F 70.0 °F 46% 29.93 in 10.0 mi North 6.9 mph 20.7 mph N/A   Clear
5:51 PM 93.0 °F 99.0 °F 70.0 °F 47% 29.91 in 10.0 mi NNE 8.1 mph - N/A   Clear
6:51 PM 91.9 °F 97.4 °F 70.0 °F 48% 29.91 in 10.0 mi Calm Calm - N/A   Clear
7:51 PM 87.1 °F 92.0 °F 70.0 °F 57% 29.91 in 10.0 mi Calm Calm - N/A   Clear
8:51 PM 84.0 °F 89.0 °F 71.1 °F 65% 29.92 in 10.0 mi SE 4.6 mph - N/A   Clear
9:51 PM 82.9 °F 88.0 °F 72.0 °F 69% 29.94 in 10.0 mi South 5.8 mph - N/A   Clear
10:51 PM 82.0 °F 86.3 °F 71.1 °F 69% 29.95 in 10.0 mi North 15.0 mph 18.4 mph N/A   Mostly Cloudy
11:00 PM 84.2 °F 88.4 °F 69.8 °F 62% 29.98 in 10.0 mi North 12.7 mph - N/A Thunderstorm Overcast
11:19 PM 75.2 °F - 69.8 °F 83% 29.98 in 0.8 mi NW 24.2 mph 36.8 mph N/A Rain , Thunderstorm Heavy Rain
11:25 PM 77.0 °F - 69.8 °F 78% 29.98 in 0.5 mi West 11.5 mph 36.8 mph 0.34 in Rain Heavy Rain
11:28 PM 75.2 °F - 69.8 °F 83% 29.98 in 1.0 mi West 11.5 mph 21.9 mph 0.34 in Rain Heavy Rain
11:33 PM 75.2 °F - 69.8 °F 83% 29.98 in 3.0 mi WSW 9.2 mph - 0.38 in Rain Light Rain
11:51 PM 75.9 °F - 70.0 °F 82% 29.94 in 10.0 mi South 8.1 mph - 0.38 in   Overcast